Flag for U.S.A. Weather past 2 weeks in Mobile, Alabama, U.S.A.

Now
33 °F

Clear.


Feels Like: 23 °F
Forecast: 30 / 54 °F
Wind: 15 mph from North

Location: Mobile Downtown Airport

Current Time: Mar 6, 2015 at 12:40:09 AM

Latest Report: Mar 5, 2015 at 11:53 PM


Visibility: 10 mi

Pressure: 30.41 "Hg

Humidity: 75%

Dew point: 26 °F

Location of MobileLocation

Historic Weather in Mobile — Graph

°F

Mobile temperature yesterday

Maximum temperature yesterday: 71 °F (at 1:53 AM)
Minimum temperature yesterday: 34 °F (at 10:53 PM)
Average temperature yesterday: 52 °F

Past Weeks' High & Low Weather Summary

 TemperatureHumidityPressure
High74 °F (Mar 4, 12:53 PM)100% (Feb 22, 5:53 AM)30.49 "Hg (Feb 22, 5:53 AM)
Low30 °F (Feb 19, 5:53 AM)18% (Feb 19, 3:53 PM)29.62 "Hg (Feb 25, 4:02 PM)
Average52 °F79%30.19 "Hg
* Reported Feb 18 10:53 PM — Mar 5 10:53 PM, Mobile, Weather by CustomWeather, © 2015

Note: Actual official high and low records may vary slightly from our data, if they occured in-between our weather recording intervals... More about our weather records

Advertising

Mobile weather history for previous 24 hours

 ConditionsComfort  
Time TempWeatherWind HumidityBarometerVisibility
10:53 PM
Thu, Mar 5
34 °FClear.16 mph73%30.40 "Hg10 mi
9:53 PM36 °FPassing clouds.18 mph73%30.42 "Hg10 mi
8:53 PM37 °FOvercast.24 mph70%30.40 "Hg10 mi
7:53 PM37 °FOvercast.16 mph73%30.36 "Hg10 mi
6:53 PM38 °FOvercast.21 mph73%30.34 "Hg10 mi
5:53 PM39 °FMostly cloudy.17 mph73%30.30 "Hg10 mi
4:53 PM40 °FMore clouds than sun.24 mph73%30.29 "Hg10 mi
3:53 PM44 °FOvercast.20 mph71%30.24 "Hg10 mi
2:53 PM45 °FOvercast.23 mph74%30.20 "Hg10 mi
1:53 PM47 °FOvercast.26 mph71%30.19 "Hg10 mi
12:53 PM47 °FOvercast.25 mph77%30.20 "Hg10 mi
11:53 AM52 °FBroken clouds.25 mph69%30.18 "Hg10 mi
10:53 AM51 °FPartly sunny.20 mph71%30.15 "Hg10 mi
9:53 AM47 °FMostly cloudy.15 mph83%30.16 "Hg10 mi
8:53 AM48 °FLight rain. Low clouds.24 mph86%30.15 "Hg10 mi
7:53 AM71 °FLow clouds.N/A93%30.04 "Hg9 mi
6:53 AM70 °FFog.5 mph97%29.99 "Hg4 mi
5:53 AM70 °FFog.5 mph93%29.96 "Hg4 mi
4:53 AM70 °FFog.7 mph97%29.94 "Hg4 mi
3:53 AM68 °FFog.5 mph100%29.94 "Hg3 mi
2:53 AM68 °FFog.3 mph96%29.93 "Hg4 mi
1:53 AM71 °FMostly cloudy.3 mph96%29.95 "Hg8 mi
12:59 AM70 °FRain. Fog.5 mph97%29.96 "Hg4 mi
Weather by CustomWeather, © 2015

See weather overviewHow to use our weather pages